Regional Weather Roundup
Issued by NWS

Home | Current Version | Previous Version | Graphics & Text | Print | Product List | Glossary On
Versions: 1 2 3 4 5 6 7 8 9 10 11 12 13 14 15 16 17 18 19 20 21 22 23 24 25 26 27 28 29 30 31 32 33 34 35 36 37 38 39 40 41 42 43 44 45 46 47 48 49 50
000
ASUS45 KBOI 280010
RWRID
WEATHER ROUNDUP FOR IDAHO
NATIONAL WEATHER SERVICE BOISE ID
600 PM MDT WED AUG 27 2014

NOTE: "FAIR" INDICATES FEW OR NO CLOUDS BELOW 12000 FEET
WITH NO SIGNIFICANT WEATHER AND/OR OBSTRUCTIONS TO VISIBILITY

IDZ012-014-280100-
SOUTHWEST IDAHO


CITY           SKY/WX    TMP DP  RH WIND       PRES   REMARKS
BOISE          SUNNY     89  35  14 NW9       30.05F
CALDWELL       SUNNY     88  43  20 E5        30.04F
MOUNTAIN HOME  SUNNY     89  40  18 NW10      30.06S
$$

IDZ016-017-280100-
SOUTHCENTRAL IDAHO


CITY           SKY/WX    TMP DP  RH WIND       PRES   REMARKS
BURLEY         SUNNY     78  46  32 VRB6      30.14S
JEROME         SUNNY     79  43  27 SW3       30.14F
TWIN FALLS     SUNNY     82  49  31 N6        30.15S
$$

IDZ019>023-280100-
SOUTHEAST IDAHO


CITY           SKY/WX    TMP DP  RH WIND       PRES   REMARKS
IDAHO FALLS    MOSUNNY   79  45  29 S10       30.15S
POCATELLO      MOSUNNY   80  45  28 W14       30.16S
REXBURG        SUNNY     76  44  32 S9        30.15S
$$

IDZ006-010-011-018-031-032-280100-
CENTRAL IDAHO MOUNTAINS


CITY           SKY/WX    TMP DP  RH WIND       PRES   REMARKS
MCCALL         SUNNY     77  37  23 VRB5      30.16F
HAILEY         MOSUNNY   77  45  31 SW10      30.19
STANLEY          N/A     75  36  24 NW8       30.26S
SALMON         SUNNY     79  46  31 W3        30.06S
CHALLIS        SUNNY     79  39  23 SE5       30.14S
$$

IDZ002-004-006-007-026-280100-
NORTHERN IDAHO


CITY           SKY/WX    TMP DP  RH WIND       PRES   REMARKS
LEWISTON       SUNNY     94  44  17 CALM      29.94F HX  90
LOWELL           N/A     78  56  46 N3        29.94S
COEUR D`ALENE  SUNNY     88  45  22 W9        29.96F
MULLAN PASS    SUNNY     69  40  34 VRB6      30.22S
$$



USA.gov is the U.S. government's official web portal to all federal, state and local government web resources and services.